[[{"header":{"parameterUnit":"m.s-1","parameterCategory":1,"la1":30.2991,"la2":30.254,"lo1":-89.0895,"lo2":-89.0444,"dy":0.0017,"dx":0.0017,"nx":28,"ny":28,"refTime":"2024-05-01T09:00:00:Z","depth":0,"parameterNumber":2,"parameterNumberName":"U-component_of_WINDS"},"data":[0,0,0,0,0,0,0,0,0,0,0,0,0,0,0,0,0,0,0,0,0,0,0,0,0,0,0,0,0,0,0,0,0,0,0,0,0,0,0,0,0,0,0,0,0,0,0,0,0,0,0,0,0,0,0,0,0,0,-2.7238,-2.7239,0,-2.732,-2.7321,-2.7322,-2.7326,-2.7325,-2.7324,-2.7324,-2.7408,-2.7411,-2.7414,0,0,0,0,0,0,0,0,0,0,0,0,0,-2.7083,-2.7086,-2.7238,-2.7239,-2.724,-2.732,-2.7321,-2.7322,-2.7327,-2.7325,-2.7324,-2.7323,-2.7406,-2.741,-2.7414,0,0,0,0,0,0,0,0,0,0,0,0,0,-2.7156,-2.7087,-2.7237,-2.7251,-2.7254,-2.732,-2.7321,-2.7323,-2.7327,-2.7325,-2.7324,-2.7323,-2.7405,-2.741,-2.7414,-2.7472,0,0,-2.7429,-2.7431,0,0,0,0,0,0,0,0,-2.7152,-2.7162,-2.7248,-2.7251,-2.7253,-2.7312,-2.7298,-2.7373,-2.7327,-2.7299,-2.7324,-2.7322,-2.7377,-2.7384,-2.7402,-2.7476,-2.748,-2.7429,-2.7432,-2.7434,-2.7435,0,0,0,0,0,0,0,-2.7147,-2.7158,-2.727,-2.725,-2.7253,-2.7254,-2.7262,-2.7312,-2.7345,-2.7301,-2.7302,-2.7312,-2.7378,-2.7398,-2.7404,-2.7481,-2.7429,-2.7433,-2.7436,-2.7438,-2.7606,-2.7608,0,0,0,0,0,0,-2.7139,-2.7154,-2.7268,-2.7273,-2.7198,-2.7257,-2.7267,-2.7294,-2.7344,-2.7351,-2.7313,-2.7311,-2.739,-2.7399,-2.7407,-2.7478,-2.7434,-2.7438,-2.7441,-2.7605,-2.7607,-2.7608,0,0,0,0,0,0,-2.7136,-2.7149,-2.7264,-2.7214,-2.7228,-2.7262,-2.7292,-2.7297,-2.7317,-2.7353,-2.7359,-2.7327,-2.739,-2.7401,-2.7456,-2.7481,-2.7441,-2.7445,-2.7603,-2.7605,-2.7608,-2.7619,0,0,0,0,0,0,-2.7132,-2.7148,-2.7171,-2.7214,-2.7231,-2.7312,-2.7293,-2.7299,-2.7325,-2.7324,-2.7368,-2.7374,-2.7389,-2.7449,-2.7461,-2.7486,-2.7449,-2.7601,-2.7604,-2.7607,-2.7617,-2.7622,-2.7626,0,0,0,0,0,-2.7126,-2.717,-2.7172,-2.7185,-2.726,-2.7313,-2.7323,-2.734,-2.7327,-2.7349,-2.7373,-2.7373,-2.7476,-2.7455,-2.7468,-2.7495,-2.7599,-2.7603,-2.7607,-2.7615,-2.7621,-2.7626,0,0,0,0,0,0,-2.7129,-2.7176,-2.7178,-2.7238,-2.7272,-2.7314,-2.7343,-2.7346,-2.7384,-2.7381,-2.7401,-2.7411,-2.7465,-2.7486,-2.7461,-2.7554,-2.7536,-2.7543,-2.7538,-2.7544,-2.7549,-2.7542,-2.7452,0,0,0,0,0,-2.7136,-2.7176,-2.7216,-2.7265,-2.7281,-2.7309,-2.7333,-2.7344,-2.7379,-2.7393,-2.742,-2.7455,-2.7495,-2.7521,-2.756,-2.762,-2.763,-2.7646,-2.7651,-2.7654,-2.7659,-2.7692,-2.7699,-2.7621,-2.7621,-2.7621,0,0,-2.7152,-2.7183,-2.7207,-2.7266,-2.7293,-2.7333,-2.7321,-2.7364,-2.7394,-2.74,-2.7453,-2.7475,-2.7514,-2.7572,-2.7599,-2.7591,-2.7683,-2.7659,-2.7662,-2.7665,-2.7697,-2.7704,-2.7711,-2.7623,-2.7623,-2.7622,0,0,-2.7202,-2.723,-2.7273,-2.7301,-2.7342,-2.736,-2.7371,-2.7413,-2.7427,-2.7482,-2.7486,-2.7523,-2.7592,-2.7619,-2.7643,-2.7703,-2.7704,-2.7716,-2.7739,-2.7771,-2.7777,-2.7783,-2.7803,-2.7811,-2.7721,-2.7721,-2.7721,0,-2.7216,-2.7277,-2.7295,-2.7338,-2.7364,-2.7371,-2.7415,-2.7441,-2.7493,-2.751,-2.7501,-2.7588,-2.7615,-2.7679,-2.7694,-2.7713,-2.7725,-2.771,-2.7775,-2.7781,-2.7786,-2.7806,-2.7814,-2.7722,-2.7722,-2.7721,-2.7721,0,-2.7292,-2.7335,-2.7365,-2.7415,-2.7444,-2.7488,-2.7512,-2.754,-2.7548,-2.7567,-2.7622,-2.7655,-2.7701,-2.7717,-2.7725,-2.7783,-2.7776,-2.7771,-2.7753,-2.7794,-2.7813,-2.7821,-2.7723,-2.7723,-2.7722,-2.7722,0,0,-2.7345,-2.7404,-2.7415,-2.7438,-2.7484,-2.7517,-2.7561,-2.7606,-2.7629,-2.7665,-2.7701,-2.776,-2.7755,-2.7782,-2.7793,-2.7821,-2.7866,-2.7813,-2.7814,-2.782,-2.793,-2.7933,-2.7942,-2.7868,-2.7869,-2.7871,-2.7927,0,-2.7398,-2.7476,-2.7494,-2.7561,-2.76,-2.7607,-2.7646,-2.7678,-2.7698,-2.7733,-2.7755,-2.7796,-2.7787,-2.7803,-2.7831,-2.7855,-2.7888,-2.7851,-2.7901,-2.7903,-2.789,-2.7952,-2.7955,-2.8006,-2.7934,-2.7936,-2.7936,0,-2.7471,-2.7508,-2.7579,-2.762,-2.7637,-2.7671,-2.7714,-2.7748,-2.7785,-2.7797,-2.7827,-2.7836,-2.7881,-2.7863,-2.7926,-2.79,-2.7922,-2.7936,-2.7939,-2.7943,-2.7921,-2.7956,-2.8023,-2.803,-2.7948,-2.7948,-2.7947,0,-2.75,-2.7569,-2.762,-2.7639,-2.7689,-2.7712,-2.7734,-2.777,-2.7795,-2.7833,-2.785,-2.7892,-2.7915,-2.7947,-2.7967,-2.7952,-2.8028,-2.8011,-2.8038,-2.8038,-2.8053,-2.8051,-2.8123,-2.8069,-2.8069,-2.8069,-2.8069,0,-2.7558,-2.76,-2.7634,-2.7665,-2.7713,-2.7733,-2.778,-2.7802,-2.7834,-2.7869,-2.7879,-2.7912,-2.7937,-2.7973,-2.7989,-2.8038,-2.8049,-2.8059,-2.8063,-2.8058,-2.8056,-2.8071,-2.8068,-2.8071,-2.8071,-2.807,-2.807,0,-2.7598,-2.7622,-2.7678,-2.7721,-2.7732,-2.7766,-2.7802,-2.7833,-2.7853,-2.7897,-2.7909,-2.794,-2.7984,-2.8007,-2.8062,-2.8072,-2.8127,-2.8129,-2.8114,-2.8115,-2.8141,-2.8138,-2.8223,-2.8235,-2.8175,-2.8176,-2.8176,0,-2.7632,-2.7665,-2.7711,-2.7736,-2.7758,-2.7797,-2.7824,-2.7845,-2.7872,-2.7917,-2.7942,-2.7986,-2.8022,-2.8091,-2.8119,-2.816,-2.8163,-2.819,-2.8169,-2.8163,-2.8162,-2.8159,-2.8162,-2.8193,-2.8194,-2.8194,-2.8194,0,-2.769,-2.7701,-2.7738,-2.778,-2.7812,-2.7846,-2.7879,-2.7899,-2.7926,-2.7956,-2.8,-2.8029,-2.8084,-2.8127,-2.8171,-2.8194,-2.8198,-2.8201,-2.8209,-2.8204,-2.8193,-2.8198,-2.8123,-2.8199,-2.8198,-2.8198,-2.8198,-2.8197,-2.7728,-2.7757,-2.7794,-2.7836,-2.7864,-2.7895,-2.7926,-2.795,-2.7987,-2.8034,-2.8045,-2.8091,-2.8128,-2.8187,-2.821,-2.8247,-2.8242,-2.8254,-2.8257,-2.8259,-2.826,-2.8189,-2.8255,-2.8255,-2.8255,-2.8255,-2.8255,0,-2.7785,-2.781,-2.7848,-2.7895,-2.7927,-2.793,-2.7967,-2.7994,-2.8035,-2.8069,-2.8104,-2.8155,-2.8197,-2.8228,-2.8271,-2.8295,-2.8298,-2.8305,-2.8303,-2.8308,-2.8263,-2.8251,-2.8302,-2.8302,-2.8302,-2.8302,-2.8302,-2.8302,-2.7819,-2.7869,-2.7883,-2.7947,-2.7971,-2.8017,-2.8038,-2.8066,-2.8093,-2.815,-2.8185,-2.8205,-2.8237,-2.8283,-2.8321,-2.8329,-2.8344,-2.8351,-2.8359,-2.8316,-2.8311,-2.8306,-2.8295,-2.8354,-2.8354,-2.8401,-2.8401,-2.8402]},{"header":{"parameterUnit":"m.s-1","parameterCategory":1,"la1":30.2991,"la2":30.254,"lo1":-89.0895,"lo2":-89.0444,"dy":0.0017,"dx":0.0017,"nx":28,"ny":28,"refTime":"2024-05-01T09:00:00:Z","depth":0,"parameterNumber":3,"parameterNumberName":"V-component_of_WINDS"},"data":[0,0,0,0,0,0,0,0,0,0,0,0,0,0,0,0,0,0,0,0,0,0,0,0,0,0,0,0,0,0,0,0,0,0,0,0,0,0,0,0,0,0,0,0,0,0,0,0,0,0,0,0,0,0,0,0,0,0,4.3409,4.341,0,4.3474,4.3474,4.3475,4.345,4.3449,4.3447,4.3446,4.3507,4.351,4.3513,0,0,0,0,0,0,0,0,0,0,0,0,0,4.3261,4.3264,4.3409,4.341,4.3411,4.3474,4.3474,4.3475,4.345,4.3448,4.3447,4.3445,4.3506,4.351,4.3513,0,0,0,0,0,0,0,0,0,0,0,0,0,4.3326,4.3265,4.3409,4.3406,4.3407,4.3473,4.3474,4.3475,4.3451,4.3448,4.3446,4.3444,4.3505,4.3509,4.3514,4.3586,0,0,4.3528,4.353,0,0,0,0,0,0,0,0,4.3322,4.3331,4.3406,4.3406,4.3407,4.3452,4.3445,4.3512,4.3451,4.3434,4.3446,4.3443,4.349,4.3496,4.3513,4.3589,4.3592,4.3528,4.3531,4.3533,4.3534,0,0,0,0,0,0,0,4.3318,4.3328,4.3435,4.3407,4.3408,4.34,4.3407,4.3457,4.3473,4.3435,4.3433,4.3442,4.349,4.3508,4.3514,4.3593,4.3528,4.3532,4.3535,4.3537,4.3732,4.3734,0,0,0,0,0,0,4.3313,4.3325,4.3433,4.3437,4.3358,4.3405,4.3412,4.3439,4.3473,4.3476,4.3443,4.344,4.3502,4.3509,4.3516,4.3603,4.3533,4.3537,4.354,4.373,4.3733,4.3735,0,0,0,0,0,0,4.331,4.3323,4.343,4.338,4.3393,4.341,4.344,4.3442,4.346,4.3479,4.3482,4.3459,4.35,4.351,4.3569,4.3605,4.3539,4.3543,4.3727,4.3731,4.3734,4.3778,0,0,0,0,0,0,4.3306,4.3322,4.3351,4.3381,4.3396,4.3484,4.3443,4.3445,4.3469,4.3465,4.3495,4.3498,4.3499,4.3563,4.3574,4.361,4.3547,4.3724,4.3728,4.3733,4.3774,4.3783,4.3791,0,0,0,0,0,4.3301,4.336,4.3352,4.3366,4.3432,4.3486,4.3494,4.3496,4.3472,4.35,4.3512,4.3497,4.3599,4.3569,4.3581,4.3619,4.3721,4.3727,4.3732,4.377,4.3781,4.3791,0,0,0,0,0,0,4.3331,4.3364,4.3356,4.3426,4.3454,4.3481,4.3517,4.3508,4.3541,4.3537,4.3536,4.3543,4.3605,4.3618,4.3584,4.3691,4.3656,4.3665,4.3681,4.3692,4.37,4.3695,4.355,0,0,0,0,0,4.3347,4.3389,4.3414,4.3474,4.3488,4.35,4.3524,4.3523,4.3551,4.3562,4.3578,4.3605,4.3643,4.3668,4.3704,4.3775,4.3781,4.3808,4.3816,4.3823,4.383,4.3869,4.3881,4.3754,4.3754,4.3753,0,0,4.3378,4.3401,4.3427,4.348,4.3501,4.3544,4.351,4.3556,4.3588,4.3568,4.3626,4.3639,4.3669,4.3735,4.3765,4.3748,4.3867,4.383,4.3836,4.3839,4.3876,4.3888,4.3899,4.3757,4.3757,4.3756,0,0,4.3457,4.3478,4.3531,4.3553,4.3586,4.3594,4.3607,4.3636,4.3645,4.3704,4.369,4.3726,4.3792,4.3814,4.3834,4.3922,4.3909,4.3933,4.3978,4.4017,4.4027,4.4035,4.4067,4.4078,4.394,4.3941,4.3941,0,4.3491,4.3556,4.3558,4.3607,4.363,4.3616,4.3669,4.369,4.3732,4.3749,4.3729,4.3812,4.3831,4.3902,4.3924,4.394,4.3954,4.393,4.4025,4.4034,4.4042,4.4072,4.4084,4.3943,4.3943,4.3943,4.3942,0,4.3597,4.3642,4.368,4.3724,4.3751,4.3801,4.381,4.3838,4.3835,4.3845,4.3905,4.3927,4.3968,4.3984,4.3981,4.4055,4.4044,4.4025,4.399,4.4057,4.4086,4.4097,4.3947,4.3946,4.3945,4.3945,0,0,4.3696,4.3741,4.3755,4.3775,4.3811,4.3845,4.3894,4.3936,4.3959,4.3989,4.403,4.4087,4.407,4.4092,4.4091,4.4125,4.4193,4.4102,4.4102,4.4118,4.4276,4.429,4.4304,4.4185,4.4187,4.4189,4.4274,0,4.3778,4.3866,4.387,4.3949,4.3991,4.3978,4.4021,4.4047,4.4058,4.4094,4.4104,4.4145,4.412,4.4133,4.4166,4.4178,4.4225,4.4172,4.4222,4.4224,4.4215,4.4318,4.4333,4.4412,4.4285,4.4287,4.4288,0,4.3885,4.392,4.4004,4.4035,4.4053,4.4091,4.413,4.4165,4.4193,4.4199,4.4224,4.4219,4.4268,4.4232,4.4299,4.4263,4.4284,4.4293,4.4296,4.4301,4.426,4.4326,4.4438,4.445,4.4305,4.4304,4.4303,0,4.3949,4.4017,4.4077,4.4094,4.4131,4.4159,4.4175,4.4202,4.4227,4.426,4.4276,4.4314,4.4335,4.4364,4.4368,4.4341,4.4436,4.44,4.4441,4.4441,4.4462,4.446,4.4578,4.4475,4.4475,4.4475,4.4474,0,4.404,4.4092,4.4107,4.4143,4.4201,4.4204,4.4261,4.4275,4.43,4.4338,4.4329,4.4364,4.4368,4.4405,4.4409,4.4464,4.4473,4.4478,4.4479,4.448,4.4479,4.4493,4.4488,4.4478,4.4477,4.4476,4.4476,0,4.4122,4.4134,4.4198,4.4228,4.4237,4.4278,4.4303,4.4338,4.4348,4.4396,4.4408,4.4423,4.4466,4.4473,4.4523,4.4526,4.4592,4.4587,4.4583,4.4582,4.4623,4.4619,4.4755,4.4772,4.4657,4.4658,4.4659,0,4.418,4.422,4.4255,4.4281,4.4299,4.434,4.4366,4.4371,4.4398,4.4435,4.4465,4.4507,4.4541,4.461,4.4624,4.4662,4.4658,4.4703,4.4663,4.4663,4.4659,4.4656,4.466,4.471,4.4711,4.4712,4.4713,0,4.4281,4.4285,4.4323,4.4364,4.4395,4.4427,4.4457,4.4478,4.4487,4.4517,4.4562,4.4589,4.464,4.4682,4.472,4.4736,4.4726,4.4726,4.4737,4.4738,4.4735,4.4737,4.4604,4.4722,4.4721,4.4721,4.472,4.472,4.4352,4.4387,4.4418,4.4461,4.4485,4.4513,4.4547,4.4562,4.46,4.4644,4.4644,4.4692,4.472,4.4771,4.4789,4.4826,4.4812,4.4828,4.4833,4.4837,4.4841,4.4729,4.4833,4.4833,4.4833,4.4832,4.4832,0,4.4453,4.4472,4.4512,4.4555,4.4589,4.4578,4.4611,4.464,4.4683,4.4711,4.4745,4.4796,4.4837,4.4855,4.4895,4.4921,4.4918,4.4932,4.493,4.4933,4.4851,4.4838,4.4934,4.4934,4.4934,4.4934,4.4934,4.4934,4.451,4.4569,4.4577,4.4647,4.4666,4.4715,4.4734,4.476,4.4782,4.4841,4.4875,4.4887,4.4911,4.4952,4.4989,4.4993,4.5008,4.5024,4.5026,4.4949,4.4939,4.4929,4.4916,4.5027,4.5027,4.5105,4.5106,4.5106]}]]